Dewpoint
68 68 68 68 68 68 68 67 67 68 69 70 70 70 69 68 66 65 63 63 62 62 62 60 60 60 59 59 59 58 56 54 52 54 56 57 56 57 58 59 59 60 60
67 68 68 68 68 68 68 68 69 68 69 69 70 70 69 68 66 66 64 63 62 62 62 62 61 60 59 59 59 59 58 58 56 54 55 56 57 58 58 59 59 59 59
65 68 68 68 68 68 68 68 69 69 69 69 69 69 69 68 66 66 65 64 63 63 62 62 62 61 60 60 60 59 59 58 58 56 56 58 59 59 59 59 58 58 59
64 66 67 68 68 68 69 69 69 69 69 69 69 69 69 68 67 65 65 65 64 64 64 62 62 61 61 61 61 60 60 60 60 59 59 59 59 59 59 57 56 58 57
64 65 66 67 68 68 69 69 69 69 69 69 69 69 69 68 67 66 65 65 64 64 64 64 63 62 62 62 61 60 60 60 60 60 59 59 58 57 56 57 56 56 57
65 65 66 67 68 68 69 69 70 70 70 69 69 69 69 68 67 66 66 65 65 64 63 64 64 64 63 62 61 60 61 60 59 59 59 59 58 57 58 57 57 56 55
65 66 67 68 68 68 69 69 69 69 70 70 69 69 69 69 67 66 66 66 66 65 64 64 63 64 64 64 63 62 61 61 60 60 59 58 57 57 59 57 57 57 57
65 66 67 68 69 69 70 69 69 69 69 69 69 69 68 69 67 65 65 67 66 66 65 65 64 64 64 64 63 63 63 63 62 61 62 59 58 61 59 59 59 58 58
66 66 67 69 69 69 70 70 70 70 70 70 70 69 69 69 67 65 65 66 66 66 65 65 65 64 64 63 63 62 62 62 63 63 62 61 61 61 62 60 58 56 55
66 67 68 69 69 69 70 70 71 71 70 71 70 70 69 69 67 65 65 67 66 66 66 66 64 65 63 62 63 63 62 61 61 62 61 59 58 56 57 59 56 52 52
65 68 69 69 70 69 70 71 71 72 71 71 71 71 70 70 69 66 64 67 67 66 65 65 65 64 63 62 63 63 62 61 61 60 58 55 52 51 52 53 55 53 51
66 67 69 69 70 70 70 71 71 72 71 71 70 70 71 71 70 63 63 67 67 66 65 65 64 62 61 60 60 62 60 59 58 56 54 50 49 51 49 50 51 53 54
64 67 69 70 71 71 71 71 71 72 71 71 70 70 69 69 63 63 64 66 65 65 64 63 61 58 57 57 59 59 59 58 55 53 51 49 50 52 50 47 47 47 45
62 65 67 69 70 71 72 71 71 71 71 70 70 70 69 65 64 62 63 62 62 61 60 59 59 58 59 59 58 56 59 56 54 52 49 49 51 50 47 44 43 41 38
63 63 65 68 69 71 67 69 71 72 71 71 70 69 66 65 65 63 61 60 61 60 59 58 58 58 57 57 57 57 55 53 51 50 50 50 51 49 46 44 41 40 38
68 63 64 67 69 64 62 60 60 64 66 64 64 63 61 61 59 61 61 59 59 58 60 59 58 57 56 55 54 54 53 51 51 50 51 51 50 48 44 40 39 39 36
68 67 66 68 65 63 65 64 61 58 60 59 59 59 60 61 62 62 60 58 57 59 60 59 58 57 55 54 53 52 51 52 52 51 51 50 47 42 37 36 38 36 34
69 67 67 66 65 67 65 64 62 60 58 58 57 57 56 57 59 58 54 54 57 58 59 58 57 55 53 52 52 52 52 52 52 51 49 44 38 36 37 37 35 34 34
62 65 65 66 66 62 61 60 60 60 59 57 52 51 53 53 52 52 55 60 59 58 57 56 55 53 52 52 52 52 50 49 48 45 39 36 37 38 37 35 33 33 34
62 60 61 62 62 61 60 60 60 60 58 56 58 53 48 52 54 55 57 57 57 56 54 54 53 53 51 51 50 48 44 41 40 39 38 36 36 37 35 33 34 33 34
60 62 62 61 60 60 60 59 60 59 58 58 60 55 57 59 56 56 54 55 55 54 53 53 52 50 49 49 46 44 42 41 41 39 38 37 38 36 34 35 34 34 34
61 62 62 60 60 60 59 60 60 59 59 58 56 52 54 55 54 54 53 54 54 54 53 51 48 48 47 46 45 43 42 41 40 37 36 36 36 34 35 35 34 33 31
62 63 62 61 61 59 58 58 58 58 57 55 54 54 54 55 54 53 53 52 52 52 51 50 49 47 47 46 45 44 42 41 39 37 35 35 34 34 34 34 33 32 30
59 60 61 61 60 61 60 58 57 56 55 54 53 54 54 54 54 53 53 52 51 50 50 49 48 46 47 46 45 43 43 41 38 37 37 34 33 32 32 32 32 32 30
56 57 59 60 60 59 59 59 58 57 56 56 54 53 52 52 51 52 52 52 51 50 50 49 47 47 47 46 44 43 39 35 35 35 36 35 32 30 27 27 32 31 31
56 56 55 55 56 58 58 57 57 57 57 56 55 54 53 53 52 53 52 51 51 50 50 50 49 47 47 46 44 41 32 30 33 33 33 30 28 26 26 29 34 33 30
Wind_Speed
30 30 29 27 27 26 25 26 24 20 20 20 19 18 18 19 19 18 17 15 18 16 12 15 15 12 12 9 7 6 7 6 7 2 3 1 2 3 3 3 4 5 7
33 32 32 30 28 28 27 27 21 23 19 21 20 19 19 20 20 21 22 17 21 20 20 16 16 11 13 11 12 10 8 8 6 7 3 4 5 1 3 5 5 3 5
30 32 30 30 29 30 29 27 22 22 21 20 21 23 21 21 21 21 21 22 22 22 20 20 17 17 16 12 12 13 11 8 8 7 8 3 2 2 2 2 4 6 5
29 31 33 34 33 32 31 29 24 24 24 24 24 22 21 20 21 22 22 21 21 18 17 17 18 19 18 17 14 15 13 12 9 8 7 6 4 2 2 3 8 1 7
31 31 34 32 31 29 28 28 26 26 26 25 24 22 21 22 22 23 21 22 21 20 16 17 18 15 19 18 16 15 14 12 10 10 9 5 6 6 8 4 5 10 9
34 36 32 29 30 30 28 28 26 24 25 24 24 25 24 24 24 27 23 21 19 20 20 19 17 20 23 23 22 20 18 16 15 13 11 11 8 6 4 4 5 5 6
35 33 32 31 32 31 28 27 29 28 26 26 26 24 26 25 24 29 29 19 21 21 21 20 19 19 21 14 20 22 19 20 14 15 11 13 10 9 5 4 5 7 8
32 31 30 31 32 29 28 30 29 28 29 27 27 27 25 24 27 31 32 23 21 21 22 22 21 18 18 17 16 14 14 14 15 14 16 15 13 8 9 5 3 4 5
29 29 29 32 32 31 32 33 30 27 26 27 25 25 28 25 30 33 32 24 22 23 21 19 19 19 17 19 15 15 13 12 11 17 14 7 6 8 7 5 4 4 5
31 34 33 33 33 34 33 32 28 25 25 23 26 28 31 29 31 34 35 23 23 20 18 20 23 17 17 19 16 14 13 12 12 8 7 5 6 6 9 9 4 6 4
29 26 27 30 32 32 29 26 23 23 22 25 27 26 26 27 26 36 39 25 21 17 17 17 15 20 16 17 16 13 12 9 11 10 8 6 5 3 5 7 8 8 6
17 24 27 28 28 27 29 27 27 27 27 26 26 24 24 24 27 30 33 21 20 18 18 17 17 20 18 16 16 12 10 11 10 9 8 7 6 5 5 4 5 7 7
15 20 19 19 20 21 28 31 30 33 25 22 22 22 22 19 17 28 33 31 27 19 14 16 19 18 16 12 10 11 16 11 11 10 11 8 5 4 3 2 3 2 5
13 17 17 21 22 23 21 20 25 28 31 35 28 31 24 16 17 16 21 19 19 15 18 13 15 15 11 12 9 9 9 11 13 11 9 7 5 4 3 2 2 1 2
9 15 18 18 21 19 13 17 23 20 21 16 15 7 12 12 17 21 17 12 16 14 16 12 16 12 11 10 8 10 8 9 10 9 9 8 5 4 4 3 3 1 2
8 13 20 21 20 18 16 11 12 26 33 36 34 35 30 32 12 20 19 11 19 26 12 15 14 14 14 13 13 13 10 11 10 8 7 7 6 6 5 4 2 2 2
13 16 17 21 23 25 23 23 25 20 38 40 33 35 35 38 19 16 21 24 24 21 10 14 14 13 13 15 15 14 13 12 9 9 8 7 6 5 5 3 3 2 2
13 20 23 25 24 22 23 24 25 26 21 14 11 25 39 41 40 36 25 23 20 12 15 18 17 16 16 16 14 12 10 10 9 8 8 7 7 6 6 5 4 3 2
14 7 5 20 26 32 28 25 21 14 10 3 3 7 17 30 33 36 34 18 18 14 14 15 17 18 15 13 11 11 12 11 10 10 8 8 9 8 6 5 4 3 2
14 12 11 14 17 31 23 23 20 19 19 20 4 12 8 25 27 26 16 18 16 15 15 16 16 15 14 14 14 13 12 11 10 9 9 9 10 8 6 5 4 3 3
4 3 6 7 7 3 14 16 22 21 19 24 18 14 18 23 23 20 17 18 18 17 18 17 16 14 14 15 15 14 12 11 10 10 10 8 8 9 7 5 4 4 3
8 6 7 10 6 6 8 6 11 17 20 23 21 16 13 16 18 18 17 16 15 15 15 16 15 14 16 18 17 16 15 12 12 11 9 8 9 8 7 6 5 4 3
8 8 9 9 7 14 14 8 15 13 15 16 17 18 16 17 16 15 15 14 14 14 11 11 13 14 14 15 16 17 17 16 16 13 11 11 11 10 8 5 5 4 3
12 11 11 13 13 9 7 12 14 13 16 17 15 14 14 15 17 18 16 15 15 12 11 13 14 18 17 15 12 11 11 10 9 10 11 11 10 8 6 6 7 5 4
14 11 12 10 10 12 8 7 7 8 7 10 14 15 12 8 7 7 10 14 12 13 15 14 13 15 18 19 17 16 15 16 12 12 10 9 8 8 6 6 6 6 4
12 10 14 17 15 8 13 8 8 7 6 6 6 9 13 17 15 13 13 13 14 15 14 12 13 17 18 17 17 18 18 17 16 17 13 10 9 8 7 7 8 6 4
Wind_Direction
198 198 201 203 202 200 200 206 206 202 199 199 198 195 197 195 197 195 206 203 210 213 212 211 212 206 209 205 199 199 200 191 224 257 243 283 273 239 241 261 264 265 269
196 197 199 198 198 197 202 206 203 202 197 198 196 194 195 198 194 197 205 202 209 214 215 210 216 209 217 205 200 210 210 204 202 234 231 231 235 275 266 289 290 246 262
195 197 198 199 195 199 202 205 199 196 196 196 197 199 198 200 195 200 202 204 208 215 214 209 209 208 219 216 213 211 217 204 209 213 231 210 214 198 248 246 253 286 290
197 198 199 200 198 200 200 201 198 194 194 198 201 197 196 200 201 201 201 205 209 216 212 204 210 211 218 217 218 224 219 216 212 219 231 235 244 247 251 284 315 316 310
196 202 206 202 201 201 200 199 199 194 199 198 198 200 196 200 205 202 202 204 205 215 212 205 215 208 227 215 214 220 217 217 215 221 230 216 221 231 241 203 287 302 296
195 203 203 200 199 200 199 196 195 195 197 195 200 200 201 208 209 201 199 203 204 208 214 212 210 210 228 222 219 218 209 217 220 215 225 231 241 230 226 249 282 315 315
198 202 200 197 199 200 197 194 196 197 189 195 199 199 207 212 206 203 202 197 205 206 207 205 209 219 223 216 221 224 222 219 210 209 218 216 228 219 208 248 260 262 260
204 200 197 199 200 196 194 198 200 197 195 194 196 199 204 210 205 205 200 202 206 205 206 204 212 216 209 208 217 219 222 220 214 208 208 222 215 206 205 230 245 257 273
203 201 200 198 198 194 196 200 200 195 196 197 195 193 203 210 201 201 198 201 204 208 206 200 204 214 209 205 210 215 218 221 216 214 222 222 208 201 199 169 217 224 270
203 205 199 196 197 197 200 199 196 196 195 191 196 200 205 209 199 197 196 197 202 202 196 205 201 200 204 202 205 207 219 220 197 181 185 168 179 163 177 203 199 242 244
205 202 200 198 198 199 193 192 192 193 191 195 202 203 208 207 203 199 195 193 199 192 195 195 190 194 196 197 198 193 213 189 196 193 188 176 192 184 184 194 197 202 198
203 198 199 202 198 194 189 188 184 187 194 197 205 211 207 205 206 197 188 183 179 182 195 197 184 179 183 192 191 200 178 160 163 167 174 186 186 181 175 186 197 213 232
200 206 208 209 211 202 189 186 185 182 195 204 199 214 215 205 180 179 184 184 178 179 181 183 162 153 148 145 160 170 161 174 170 176 184 191 186 170 163 184 208 215 247
232 219 205 200 198 200 199 201 197 190 190 182 208 209 194 169 172 183 176 172 158 149 145 150 133 127 134 135 122 156 175 181 184 187 180 177 163 177 190 182 225 254 304
266 223 204 196 195 192 181 196 201 198 208 223 206 157 162 179 166 138 141 161 154 150 140 141 128 132 130 138 151 163 176 172 186 172 176 175 182 196 208 179 190 221 272
260 227 205 186 181 162 142 95 104 126 108 108 107 105 78 70 354 111 122 199 159 153 177 154 147 154 160 168 175 170 179 186 190 182 185 181 198 213 200 181 169 195 264
240 218 191 175 166 163 153 147 123 97 120 127 125 116 120 131 172 193 185 188 169 171 177 149 158 174 171 180 176 174 183 191 177 185 185 190 198 197 194 204 184 201 250
255 193 179 173 166 163 150 141 135 132 136 152 177 160 157 160 164 163 178 154 172 191 164 167 173 174 174 175 180 177 166 165 171 182 178 175 189 199 185 189 197 206 259
21 352 273 184 165 140 128 125 116 109 89 64 317 329 157 140 143 149 162 164 180 180 173 171 169 170 171 178 180 169 164 167 173 169 169 179 195 194 192 191 194 210 211
41 40 23 6 323 131 133 134 130 130 138 129 167 248 132 126 136 156 158 166 175 173 171 171 168 175 172 171 167 164 157 165 171 176 186 194 201 201 203 194 203 214 234
355 57 122 112 276 23 126 151 135 128 137 142 163 208 184 150 136 153 166 172 174 173 174 174 172 180 170 166 164 167 171 181 186 199 197 198 201 193 192 203 206 216 245
190 181 152 144 151 123 103 130 125 126 137 138 156 160 124 122 150 165 166 173 181 179 173 171 173 180 172 172 173 175 175 191 199 206 196 198 196 188 180 198 213 228 219
77 88 83 82 71 92 93 106 102 115 116 117 131 152 159 155 161 172 180 177 178 179 173 175 173 182 184 181 178 177 178 191 203 190 189 190 190 184 178 205 223 239 236
58 89 96 93 87 77 97 109 111 123 131 137 151 170 174 166 174 182 181 176 179 179 182 185 187 186 179 181 177 180 180 181 179 191 187 181 185 188 183 197 213 222 249
46 58 73 84 105 93 64 74 106 115 142 161 175 178 171 171 173 188 180 174 179 187 194 191 189 185 184 187 187 185 186 173 173 171 169 170 180 188 204 222 211 205 210
42 39 73 76 54 68 129 159 138 137 186 188 172 176 175 175 178 183 201 198 192 198 195 188 193 194 192 191 186 183 180 173 171 171 166 171 182 201 203 220 218 219 212